| time (UTC) | temp F | wind direction | speed MPH | gust MPH | rain 1hr in | rain 24hr in | rain mn in | humidity % | barometer mb |
| 20260510044526 | 76 | 186 | 0.0 | 0.0 | 0.00 | 0.00 | 0.00 | 64 | 1009.8 |
| 20260510043023 | 76 | 186 | 0.0 | 3.0 | 0.00 | 0.00 | 0.00 | 64 | 1009.7 |
| 20260510041522 | 77 | 188 | 0.0 | 0.0 | 0.00 | 0.00 | 0.00 | 64 | 1009.5 |
| 20260510040014 | 78 | 188 | 0.0 | 0.0 | 0.00 | 0.00 | 0.00 | 65 | 1009.4 |
| 20260510034509 | 78 | 188 | 0.0 | 0.0 | 0.00 | 0.00 | 0.00 | 66 | 1009.3 |
| 20260510033004 | 79 | 188 | 0.0 | 0.0 | 0.00 | 0.00 | 0.00 | 66 | 1009.2 |
| 20260510031605 | 79 | 188 | 0.0 | 0.0 | 0.00 | 0.00 | 0.00 | 65 | 1009.1 |
| 20260510030156 | 79 | 188 | 0.0 | 0.0 | 0.00 | 0.00 | 0.00 | 65 | 1008.8 |
| 20260510024551 | 80 | 188 | 1.0 | 6.0 | 0.00 | 0.00 | 0.00 | 65 | 1008.5 |
| 20260510023047 | 81 | 182 | 0.0 | 4.0 | 0.00 | 0.00 | 0.00 | 66 | 1008.4 |
| 20260510021635 | 81 | 182 | 1.0 | 4.0 | 0.00 | 0.00 | 0.00 | 66 | 1008.4 |
| 20260510020037 | 82 | 159 | 0.0 | 3.0 | 0.00 | 0.00 | 0.00 | 67 | 1008.2 |
| 20260510014546 | 82 | 190 | 0.0 | 4.0 | 0.00 | 0.00 | 0.00 | 67 | 1008.0 |
| 20260510013032 | 83 | 197 | 0.0 | 7.0 | 0.00 | 0.00 | 0.00 | 67 | 1007.9 |
| 20260510011525 | 83 | 126 | 0.0 | 1.0 | 0.00 | 0.00 | 0.00 | 66 | 1007.6 |
| 20260510010032 | 84 | 122 | 0.0 | 0.0 | 0.00 | 0.00 | 0.00 | 65 | 1007.6 |
| 20260510004522 | 84 | 120 | 0.0 | 2.0 | 0.00 | 0.00 | 0.00 | 65 | 1007.6 |
| 20260510003023 | 84 | 98 | 0.0 | 4.0 | 0.00 | 0.00 | 0.00 | 64 | 1007.4 |
| 20260510001519 | 85 | 179 | 0.0 | 4.0 | 0.00 | 0.00 | 0.00 | 63 | 1007.3 |
| 20260510000018 | 85 | 178 | 3.0 | 8.0 | 0.00 | 0.00 | 0.00 | 62 | 1007.2 |
| 20260509234521 | 86 | 185 | 1.0 | 5.0 | 0.00 | 0.00 | 0.00 | 61 | 1007.0 |
| 20260509233018 | 86 | 164 | 0.0 | 3.0 | 0.00 | 0.00 | 0.00 | 61 | 1007.0 |
| 20260509231518 | 86 | 169 | 2.0 | 4.0 | 0.00 | 0.00 | 0.00 | 60 | 1007.0 |
| 20260509230025 | 86 | 109 | 1.0 | 8.0 | 0.00 | 0.00 | 0.00 | 57 | 1007.0 |
| 20260509224517 | 87 | 115 | 0.0 | 4.0 | 0.00 | 0.00 | 0.00 | 53 | 1006.9 |
| 20260509223009 | 87 | 180 | 2.0 | 9.0 | 0.00 | 0.00 | 0.00 | 44 | 1006.9 |
| 20260509221505 | 87 | 110 | 1.0 | 4.0 | 0.00 | 0.00 | 0.00 | 47 | 1006.8 |
| 20260509220100 | 86 | 216 | 0.0 | 2.0 | 0.00 | 0.00 | 0.00 | 50 | 1006.5 |
| 20260509214556 | 85 | 171 | 1.0 | 4.0 | 0.00 | 0.00 | 0.00 | 52 | 1006.8 |
| 20260509213105 | 83 | 198 | 1.0 | 8.0 | 0.00 | 0.00 | 0.00 | 55 | 1006.9 |
| 20260509211549 | 81 | 169 | 4.0 | 11.0 | 0.00 | 0.00 | 0.00 | 55 | 1007.6 |
| 20260509210046 | 78 | 217 | 5.0 | 17.0 | 0.00 | 0.00 | 0.00 | 55 | 1007.7 |
| 20260509204539 | 78 | 185 | 11.0 | 22.0 | 0.00 | 0.00 | 0.00 | 58 | 1007.7 |
| 20260509203034 | 83 | 56 | 4.0 | 16.0 | 0.00 | 0.00 | 0.00 | 52 | 1007.9 |
| 20260509201528 | 89 | 103 | 5.0 | 14.0 | 0.00 | 0.00 | 0.00 | 58 | 1008.0 |
| 20260509200024 | 91 | 40 | 0.0 | 5.0 | 0.00 | 0.00 | 0.00 | 52 | 1007.9 |
| 20260509194531 | 90 | 265 | 1.0 | 4.0 | 0.00 | 0.00 | 0.00 | 53 | 1007.9 |
| 20260509193022 | 90 | 208 | 0.0 | 3.0 | 0.00 | 0.00 | 0.00 | 54 | 1008.0 |
| 20260509191514 | 90 | 240 | 0.0 | 4.0 | 0.00 | 0.00 | 0.00 | 56 | 1008.2 |
| 20260509190008 | 89 | 219 | 0.0 | 5.0 | 0.00 | 0.00 | 0.00 | 57 | 1008.4 |
| 20260509184502 | 89 | 214 | 0.0 | 4.0 | 0.00 | 0.00 | 0.00 | 58 | 1008.7 |
| 20260509183100 | 89 | 213 | 0.0 | 4.0 | 0.00 | 0.00 | 0.00 | 58 | 1009.1 |
| 20260509181601 | 88 | 178 | 0.0 | 4.0 | 0.00 | 0.00 | 0.00 | 62 | 1009.3 |
| 20260509180057 | 88 | 204 | 0.0 | 3.0 | 0.00 | 0.00 | 0.00 | 62 | 1009.4 |
| 20260509174547 | 87 | 184 | 0.0 | 5.0 | 0.00 | 0.00 | 0.00 | 64 | 1009.6 |
| 20260509173053 | 86 | 193 | 0.0 | 6.0 | 0.00 | 0.00 | 0.00 | 65 | 1010.0 |
| 20260509171539 | 85 | 194 | 0.0 | 4.0 | 0.00 | 0.00 | 0.00 | 65 | 1010.0 |
| 20260509170031 | 84 | 202 | 0.0 | 4.0 | 0.00 | 0.00 | 0.00 | 65 | 1010.2 |
| 20260509164526 | 83 | 97 | 0.0 | 4.0 | 0.00 | 0.00 | 0.00 | 64 | 1010.3 |
| 20260509163022 | 82 | 213 | 0.0 | 3.0 | 0.00 | 0.00 | 0.00 | 58 | 1010.3 |
| 20260509161519 | 81 | 213 | 0.0 | 4.0 | 0.00 | 0.00 | 0.00 | 40 | 1010.4 |
| 20260509160015 | 79 | 238 | 0.0 | 4.0 | 0.00 | 0.00 | 0.00 | 28 | 1010.3 |
| 20260509154509 | 78 | 169 | 0.0 | 5.0 | 0.00 | 0.00 | 0.00 | 1 | 1010.4 |
| 20260509153011 | 77 | 193 | 0.0 | 3.0 | 0.00 | 0.00 | 0.00 | 1 | 1010.4 |
| 20260509151600 | 76 | 199 | 0.0 | 5.0 | 0.00 | 0.00 | 0.00 | 1 | 1010.4 |
| 20260509150055 | 74 | 200 | 0.0 | 4.0 | 0.00 | 0.00 | 0.00 | 1 | 1010.6 |
| 20260509144552 | 74 | 171 | 0.0 | 5.0 | 0.00 | 0.00 | 0.00 | 1 | 1010.3 |
| 20260509143047 | 73 | 199 | 0.0 | 4.0 | 0.00 | 0.00 | 0.00 | 1 | 1010.2 |
| 20260509141544 | 73 | 181 | 0.0 | 6.0 | 0.00 | 0.00 | 0.00 | 1 | 1010.0 |
| 20260509140052 | 73 | 183 | 1.0 | 4.0 | 0.00 | 0.00 | 0.00 | 1 | 1010.1 |
| 20260509134534 | 73 | 45 | 0.0 | 0.0 | 0.00 | 0.00 | 0.00 | 1 | 1010.3 |
| 20260509133038 | 73 | 45 | 0.0 | 0.0 | 0.00 | 0.00 | 0.00 | 1 | 1010.4 |
| 20260509131530 | 73 | 45 | 0.0 | 0.0 | 0.00 | 0.00 | 0.00 | 1 | 1010.4 |
| 20260509130025 | 0 | 0.0 | 0.0 | 0.00 | 0.00 | 0.00 | 1010.0 | ||
| 20260509124521 | 0 | 0.0 | 0.0 | 0.00 | 0.00 | 0.00 | 1009.6 | ||
| 20260509123017 | 0 | 0.0 | 0.0 | 0.00 | 0.00 | 0.00 | 1009.8 | ||
| 20260509121512 | 0 | 0.0 | 0.0 | 0.00 | 0.00 | 0.00 | 1010.0 | ||
| 20260509120008 | 0 | 0.0 | 0.0 | 0.00 | 0.00 | 0.00 | 1010.1 | ||
| 20260509114503 | 0 | 0.0 | 0.0 | 0.00 | 0.00 | 0.00 | 1010.2 | ||
| 20260509113100 | 73 | 44 | 0.0 | 0.0 | 0.00 | 0.00 | 0.00 | 1 | 1010.6 |
| 20260509111558 | 73 | 44 | 0.0 | 3.0 | 0.00 | 0.00 | 0.00 | 1 | 1010.7 |
| 20260509110051 | 73 | 45 | 0.0 | 3.0 | 0.00 | 0.00 | 0.00 | 1 | 1011.0 |
| 20260509104548 | 73 | 46 | 0.0 | 5.0 | 0.00 | 0.00 | 0.00 | 1 | 1011.0 |
| 20260509103047 | 73 | 105 | 0.0 | 0.0 | 0.00 | 0.00 | 0.00 | 1 | 1010.9 |
| 20260509101539 | 73 | 107 | 0.0 | 0.0 | 0.00 | 0.00 | 0.00 | 1 | 1010.4 |
| 20260509100032 | 73 | 107 | 0.0 | 0.0 | 0.00 | 0.00 | 0.00 | 1 | 1009.9 |
| 20260509094527 | 73 | 107 | 0.0 | 0.0 | 0.00 | 0.00 | 0.00 | 1 | 1009.6 |
| 20260509093023 | 73 | 107 | 0.0 | 0.0 | 0.00 | 0.00 | 0.00 | 1 | 1009.8 |
| 20260509091519 | 73 | 107 | 0.0 | 0.0 | 0.00 | 0.00 | 0.00 | 1 | 1009.6 |
| 20260509090023 | 73 | 107 | 0.0 | 0.0 | 0.00 | 0.00 | 0.00 | 1 | 1009.5 |
| 20260509084510 | 73 | 107 | 0.0 | 0.0 | 0.00 | 0.00 | 0.00 | 1 | 1009.7 |
| 20260509083007 | 73 | 105 | 0.0 | 0.0 | 0.00 | 0.00 | 0.00 | 1 | 1009.8 |
| 20260509081502 | 73 | 155 | 0.0 | 0.0 | 0.00 | 0.00 | 0.00 | 1 | 1010.1 |
| 20260509080059 | 73 | 160 | 0.0 | 0.0 | 0.00 | 0.00 | 0.00 | 1 | 1009.8 |
| 20260509074609 | 73 | 165 | 0.0 | 0.0 | 0.00 | 0.00 | 0.00 | 1 | 1009.6 |
| 20260509073103 | 73 | 171 | 0.0 | 0.0 | 0.00 | 0.00 | 0.00 | 1 | 1009.9 |
| 20260509071552 | 73 | 171 | 0.0 | 0.0 | 0.00 | 0.00 | 0.00 | 2 | 1010.0 |
| 20260509070043 | 73 | 171 | 0.0 | 0.0 | 0.00 | 0.00 | 0.00 | 2 | 1010.1 |
| 20260509064537 | 73 | 207 | 0.0 | 3.0 | 0.00 | 0.00 | 0.00 | 3 | 1009.7 |
| 20260509063041 | 73 | 207 | 0.0 | 1.0 | 0.00 | 0.00 | 0.00 | 5 | 1009.6 |
| 20260509061529 | 73 | 210 | 0.0 | 4.0 | 0.00 | 0.00 | 0.00 | 6 | 1009.8 |
| 20260509060029 | 73 | 213 | 0.0 | 10.0 | 0.00 | 0.00 | 0.00 | 10 | 1009.7 |
| 20260509054523 | 74 | 188 | 2.0 | 9.0 | 0.00 | 0.00 | 0.00 | 13 | 1009.5 |
| 20260509053032 | 74 | 200 | 2.0 | 7.0 | 0.00 | 0.00 | 0.00 | 15 | 1009.6 |
| 20260509051520 | 74 | 171 | 1.0 | 5.0 | 0.00 | 0.00 | 0.00 | 18 | 1009.3 |